| time (UTC) | temp F | wind direction | speed knots | gust knots | rain 1hr in | rain 24hr in | rain mn in | humidity % | barometer mb |
| 20260906191611 | 93 | 168 | 4.3 | 12.2 | 0.00 | 0.00 | 0.00 | 29 | 1010.7 |
| 20260906191059 | 93 | 117 | 7.0 | 14.8 | 0.00 | 0.00 | 0.00 | 29 | 1011.0 |
| 20260906190557 | 93 | 191 | 7.8 | 14.8 | 0.00 | 0.00 | 0.00 | 28 | 1010.9 |
| 20260906190056 | 93 | 127 | 4.3 | 12.2 | 0.00 | 0.00 | 0.00 | 28 | 1011.0 |
| 20260906185558 | 93 | 173 | 6.1 | 12.2 | 0.00 | 0.00 | 0.00 | 28 | 1011.1 |
| 20260906185053 | 92 | 185 | 5.2 | 15.6 | 0.00 | 0.00 | 0.00 | 29 | 1011.1 |
| 20260906184557 | 92 | 212 | 7.0 | 11.3 | 0.00 | 0.00 | 0.00 | 30 | 1011.4 |
| 20260906183550 | 92 | 187 | 5.2 | 11.3 | 0.00 | 0.00 | 0.00 | 30 | 1011.4 |
| 20260906183049 | 92 | 191 | 6.1 | 11.3 | 0.00 | 0.00 | 0.00 | 31 | 1011.5 |
| 20260906182551 | 92 | 156 | 6.1 | 11.3 | 0.00 | 0.00 | 0.00 | 32 | 1011.7 |
| 20260906182049 | 92 | 153 | 7.0 | 12.2 | 0.00 | 0.00 | 0.00 | 32 | 1011.7 |
| 20260906181558 | 91 | 162 | 7.8 | 12.2 | 0.00 | 0.00 | 0.00 | 33 | 1011.8 |
| 20260906181045 | 91 | 89 | 6.1 | 14.8 | 0.00 | 0.00 | 0.00 | 34 | 1011.8 |
| 20260906180544 | 90 | 193 | 7.8 | 15.6 | 0.00 | 0.00 | 0.00 | 34 | 1011.9 |
| 20260906180042 | 90 | 106 | 6.1 | 15.6 | 0.00 | 0.00 | 0.00 | 34 | 1012.0 |
| 20260906175542 | 89 | 193 | 5.2 | 13.0 | 0.00 | 0.00 | 0.00 | 36 | 1012.1 |
| 20260906175040 | 89 | 160 | 5.2 | 11.3 | 0.00 | 0.00 | 0.00 | 36 | 1012.1 |
| 20260906174540 | 89 | 196 | 6.1 | 10.4 | 0.00 | 0.00 | 0.00 | 36 | 1012.3 |
| 20260906173540 | 89 | 184 | 5.2 | 13.0 | 0.00 | 0.00 | 0.00 | 36 | 1012.4 |
| 20260906173040 | 89 | 135 | 6.1 | 13.0 | 0.00 | 0.00 | 0.00 | 37 | 1012.5 |
| 20260906172537 | 88 | 173 | 5.2 | 9.6 | 0.00 | 0.00 | 0.00 | 38 | 1012.6 |
| 20260906172037 | 88 | 198 | 5.2 | 11.3 | 0.00 | 0.00 | 0.00 | 41 | 1012.6 |
| 20260906171537 | 87 | 228 | 6.1 | 11.3 | 0.00 | 0.00 | 0.00 | 42 | 1012.6 |
| 20260906171036 | 87 | 181 | 4.3 | 9.6 | 0.00 | 0.00 | 0.00 | 42 | 1012.6 |
| 20260906170537 | 87 | 212 | 5.2 | 10.4 | 0.00 | 0.00 | 0.00 | 42 | 1012.8 |
| 20260906170036 | 87 | 191 | 7.0 | 13.0 | 0.00 | 0.00 | 0.00 | 42 | 1012.8 |
| 20260906165535 | 88 | 198 | 7.8 | 13.0 | 0.00 | 0.00 | 0.00 | 41 | 1012.9 |
| 20260906165034 | 87 | 202 | 7.8 | 12.2 | 0.00 | 0.00 | 0.00 | 42 | 1012.7 |
| 20260906164534 | 87 | 211 | 6.1 | 13.0 | 0.00 | 0.00 | 0.00 | 42 | 1012.7 |
| 20260906163532 | 86 | 194 | 6.1 | 12.2 | 0.00 | 0.00 | 0.00 | 43 | 1012.8 |
| 20260906163031 | 87 | 213 | 7.0 | 12.2 | 0.00 | 0.00 | 0.00 | 43 | 1012.7 |
| 20260906162530 | 86 | 229 | 7.8 | 12.2 | 0.00 | 0.00 | 0.00 | 43 | 1012.6 |
| 20260906162029 | 86 | 168 | 6.1 | 13.0 | 0.00 | 0.00 | 0.00 | 44 | 1012.7 |
| 20260906161531 | 86 | 190 | 7.0 | 12.2 | 0.00 | 0.00 | 0.00 | 44 | 1012.7 |
| 20260906161031 | 86 | 216 | 7.0 | 10.4 | 0.00 | 0.00 | 0.00 | 44 | 1012.6 |
| 20260906160527 | 85 | 195 | 5.2 | 10.4 | 0.00 | 0.00 | 0.00 | 44 | 1012.7 |
| 20260906160026 | 85 | 197 | 5.2 | 11.3 | 0.00 | 0.00 | 0.00 | 45 | 1012.8 |
| 20260906155525 | 85 | 191 | 7.0 | 11.3 | 0.00 | 0.00 | 0.00 | 45 | 1012.7 |
| 20260906155024 | 85 | 193 | 5.2 | 10.4 | 0.00 | 0.00 | 0.00 | 45 | 1012.5 |
| 20260906154523 | 85 | 173 | 5.2 | 10.4 | 0.00 | 0.00 | 0.00 | 46 | 1012.7 |
| 20260906153525 | 84 | 216 | 7.8 | 13.0 | 0.00 | 0.00 | 0.00 | 46 | 1012.6 |
| 20260906153021 | 84 | 180 | 7.0 | 13.0 | 0.00 | 0.00 | 0.00 | 46 | 1012.6 |
| 20260906152520 | 84 | 170 | 6.1 | 11.3 | 0.00 | 0.00 | 0.00 | 46 | 1012.5 |
| 20260906152024 | 84 | 191 | 6.1 | 12.2 | 0.00 | 0.00 | 0.00 | 47 | 1012.5 |
| 20260906151517 | 84 | 196 | 6.1 | 12.2 | 0.00 | 0.00 | 0.00 | 46 | 1012.6 |
| 20260906151016 | 84 | 188 | 8.7 | 12.2 | 0.00 | 0.00 | 0.00 | 46 | 1012.5 |
| 20260906150515 | 83 | 159 | 4.3 | 9.6 | 0.00 | 0.00 | 0.00 | 47 | 1012.4 |
| 20260906150016 | 83 | 187 | 2.6 | 8.7 | 0.00 | 0.00 | 0.00 | 47 | 1012.3 |
| 20260906145512 | 83 | 191 | 3.5 | 8.7 | 0.00 | 0.00 | 0.00 | 48 | 1012.3 |
| 20260906145011 | 83 | 198 | 3.5 | 9.6 | 0.00 | 0.00 | 0.00 | 48 | 1012.3 |
| 20260906144511 | 82 | 196 | 4.3 | 9.6 | 0.00 | 0.00 | 0.00 | 48 | 1012.3 |
| 20260906143511 | 82 | 179 | 3.5 | 7.0 | 0.00 | 0.00 | 0.00 | 49 | 1012.3 |
| 20260906143010 | 82 | 132 | 3.5 | 7.0 | 0.00 | 0.00 | 0.00 | 49 | 1012.4 |
| 20260906142510 | 82 | 187 | 2.6 | 3.5 | 0.00 | 0.00 | 0.00 | 50 | 1012.3 |
| 20260906142010 | 81 | 187 | 0.9 | 2.6 | 0.00 | 0.00 | 0.00 | 51 | 1012.2 |
| 20260906141509 | 81 | 187 | 1.7 | 2.6 | 0.00 | 0.00 | 0.00 | 51 | 1012.3 |
| 20260906141013 | 81 | 187 | 0.9 | 2.6 | 0.00 | 0.00 | 0.00 | 51 | 1012.2 |
| 20260906140509 | 80 | 187 | 0.0 | 2.6 | 0.00 | 0.00 | 0.00 | 52 | 1012.2 |
| 20260906140013 | 80 | 187 | 0.0 | 2.6 | 0.00 | 0.00 | 0.00 | 53 | 1012.1 |
| 20260906135508 | 79 | 187 | 0.0 | 2.6 | 0.00 | 0.00 | 0.00 | 54 | 1012.1 |
| 20260906135008 | 78 | 187 | 0.9 | 3.5 | 0.00 | 0.00 | 0.00 | 55 | 1012.1 |
| 20260906134507 | 78 | 187 | 0.9 | 3.5 | 0.00 | 0.00 | 0.00 | 55 | 1012.1 |
| 20260906133507 | 78 | 187 | 1.7 | 2.6 | 0.00 | 0.00 | 0.00 | 55 | 1012.1 |
| 20260906133007 | 77 | 187 | 0.0 | 0.0 | 0.00 | 0.00 | 0.00 | 56 | 1012.0 |
| 20260906132507 | 77 | 187 | 0.0 | 0.0 | 0.00 | 0.00 | 0.00 | 56 | 1012.0 |
| 20260906132006 | 77 | 187 | 0.0 | 0.0 | 0.00 | 0.00 | 0.00 | 56 | 1011.9 |
| 20260906131508 | 77 | 187 | 0.0 | 0.0 | 0.00 | 0.00 | 0.00 | 56 | 1011.9 |
| 20260906131005 | 77 | 187 | 0.0 | 0.0 | 0.00 | 0.00 | 0.00 | 56 | 1012.0 |
| 20260906130505 | 77 | 187 | 0.0 | 0.0 | 0.00 | 0.00 | 0.00 | 57 | 1011.9 |
| 20260906130006 | 76 | 187 | 0.0 | 0.0 | 0.00 | 0.00 | 0.00 | 57 | 1011.8 |
| 20260906125506 | 76 | 187 | 0.0 | 0.0 | 0.00 | 0.00 | 0.00 | 57 | 1011.8 |
| 20260906125004 | 76 | 187 | 0.0 | 0.0 | 0.00 | 0.00 | 0.00 | 57 | 1011.8 |
| 20260906124505 | 76 | 187 | 0.0 | 0.0 | 0.00 | 0.00 | 0.00 | 57 | 1011.6 |
| 20260906123503 | 76 | 187 | 0.0 | 0.0 | 0.00 | 0.00 | 0.00 | 57 | 1011.4 |
| 20260906123007 | 76 | 187 | 0.0 | 0.0 | 0.00 | 0.00 | 0.00 | 57 | 1011.3 |
| 20260906122504 | 76 | 187 | 0.0 | 0.9 | 0.00 | 0.00 | 0.00 | 57 | 1011.3 |
| 20260906122003 | 76 | 187 | 0.0 | 0.9 | 0.00 | 0.00 | 0.00 | 57 | 1011.3 |
| 20260906121503 | 76 | 187 | 0.0 | 1.7 | 0.00 | 0.00 | 0.00 | 57 | 1011.2 |
| 20260906121003 | 76 | 187 | 0.0 | 1.7 | 0.00 | 0.00 | 0.00 | 57 | 1011.2 |
| 20260906120504 | 76 | 187 | 0.0 | 1.7 | 0.00 | 0.00 | 0.00 | 57 | 1011.1 |
| 20260906120004 | 76 | 187 | 0.0 | 2.6 | 0.00 | 0.00 | 0.00 | 57 | 1011.0 |
| 20260906115503 | 76 | 187 | 0.0 | 2.6 | 0.00 | 0.00 | 0.00 | 57 | 1011.0 |
| 20260906115002 | 76 | 187 | 0.9 | 2.6 | 0.00 | 0.00 | 0.00 | 56 | 1011.0 |
| 20260906114505 | 76 | 187 | 1.7 | 3.5 | 0.00 | 0.00 | 0.00 | 56 | 1010.9 |
| 20260906113502 | 77 | 187 | 1.7 | 3.5 | 0.00 | 0.00 | 0.00 | 56 | 1010.9 |
| 20260906113002 | 77 | 187 | 1.7 | 3.5 | 0.00 | 0.00 | 0.00 | 56 | 1010.9 |
| 20260906112501 | 77 | 187 | 0.9 | 2.6 | 0.00 | 0.00 | 0.00 | 56 | 1010.7 |
| 20260906112001 | 77 | 187 | 0.9 | 2.6 | 0.00 | 0.00 | 0.00 | 56 | 1010.8 |
| 20260906111603 | 77 | 187 | 0.9 | 2.6 | 0.00 | 0.00 | 0.00 | 56 | 1010.6 |
| 20260906111059 | 77 | 187 | 0.9 | 2.6 | 0.00 | 0.00 | 0.00 | 56 | 1010.6 |
| 20260906110559 | 77 | 187 | 0.9 | 2.6 | 0.00 | 0.00 | 0.00 | 55 | 1010.5 |
| 20260906110100 | 77 | 187 | 1.7 | 3.5 | 0.00 | 0.00 | 0.00 | 55 | 1010.4 |
| 20260906105558 | 77 | 187 | 1.7 | 3.5 | 0.00 | 0.00 | 0.00 | 55 | 1010.5 |
| 20260906105058 | 77 | 187 | 1.7 | 3.5 | 0.00 | 0.00 | 0.00 | 55 | 1010.4 |
| 20260906104557 | 77 | 187 | 1.7 | 3.5 | 0.00 | 0.00 | 0.00 | 55 | 1010.4 |
| 20260906103559 | 78 | 187 | 1.7 | 3.5 | 0.00 | 0.00 | 0.00 | 54 | 1010.3 |
| 20260906103058 | 78 | 187 | 2.6 | 3.5 | 0.00 | 0.00 | 0.00 | 54 | 1010.4 |
| 20260906102559 | 78 | 187 | 1.7 | 3.5 | 0.00 | 0.00 | 0.00 | 54 | 1010.4 |
| 20260906102101 | 78 | 187 | 1.7 | 2.6 | 0.00 | 0.00 | 0.00 | 54 | 1010.4 |
| 20260906101603 | 78 | 187 | 0.9 | 2.6 | 0.00 | 0.00 | 0.00 | 54 | 1010.3 |
| 20260906101057 | 78 | 187 | 0.9 | 2.6 | 0.00 | 0.00 | 0.00 | 54 | 1010.5 |
| 20260906100557 | 78 | 187 | 0.9 | 2.6 | 0.00 | 0.00 | 0.00 | 54 | 1010.4 |
| 20260906100057 | 78 | 187 | 0.9 | 3.5 | 0.00 | 0.00 | 0.00 | 54 | 1010.4 |
| 20260906095557 | 78 | 187 | 1.7 | 3.5 | 0.00 | 0.00 | 0.00 | 54 | 1010.4 |
| 20260906095057 | 78 | 187 | 0.9 | 2.6 | 0.00 | 0.00 | 0.00 | 54 | 1010.2 |
| 20260906094557 | 78 | 187 | 0.9 | 1.7 | 0.00 | 0.00 | 0.00 | 54 | 1010.2 |
| 20260906093554 | 78 | 187 | 0.9 | 2.6 | 0.00 | 0.00 | 0.00 | 53 | 1010.2 |
| 20260906093054 | 78 | 187 | 0.0 | 2.6 | 0.00 | 0.00 | 0.00 | 53 | 1010.2 |
| 20260906092553 | 78 | 187 | 0.9 | 3.5 | 0.00 | 0.00 | 0.00 | 53 | 1010.1 |
| 20260906092053 | 79 | 187 | 1.7 | 3.5 | 0.00 | 0.00 | 0.00 | 52 | 1010.1 |
| 20260906091553 | 79 | 187 | 1.7 | 3.5 | 0.00 | 0.00 | 0.00 | 52 | 1010.1 |
| 20260906091051 | 79 | 187 | 1.7 | 4.3 | 0.00 | 0.00 | 0.00 | 52 | 1010.0 |
| 20260906090551 | 79 | 188 | 1.7 | 4.3 | 0.00 | 0.00 | 0.00 | 52 | 1010.1 |
| 20260906090050 | 79 | 188 | 1.7 | 4.3 | 0.00 | 0.00 | 0.00 | 52 | 1010.1 |
| 20260906085553 | 79 | 188 | 2.6 | 4.3 | 0.00 | 0.00 | 0.00 | 52 | 1010.2 |
| 20260906085050 | 79 | 188 | 1.7 | 3.5 | 0.00 | 0.00 | 0.00 | 51 | 1010.3 |
| 20260906084550 | 79 | 188 | 1.7 | 3.5 | 0.00 | 0.00 | 0.00 | 51 | 1010.3 |
| 20260906083549 | 79 | 188 | 1.7 | 3.5 | 0.00 | 0.00 | 0.00 | 51 | 1010.3 |
| 20260906083050 | 79 | 188 | 1.7 | 3.5 | 0.00 | 0.00 | 0.00 | 51 | 1010.2 |
| 20260906082549 | 79 | 188 | 0.9 | 3.5 | 0.00 | 0.00 | 0.00 | 51 | 1010.1 |
| 20260906082049 | 79 | 188 | 1.7 | 2.6 | 0.00 | 0.00 | 0.00 | 52 | 1010.2 |
| 20260906081552 | 79 | 188 | 0.9 | 2.6 | 0.00 | 0.00 | 0.00 | 52 | 1010.2 |
| 20260906081048 | 79 | 188 | 0.0 | 2.6 | 0.00 | 0.00 | 0.00 | 52 | 1010.2 |
| 20260906080550 | 79 | 188 | 0.0 | 1.7 | 0.00 | 0.00 | 0.00 | 51 | 1010.3 |
| 20260906080047 | 79 | 188 | 0.0 | 1.7 | 0.00 | 0.00 | 0.00 | 51 | 1010.3 |
| 20260906075546 | 79 | 188 | 0.9 | 1.7 | 0.00 | 0.00 | 0.00 | 51 | 1010.4 |
| 20260906075046 | 79 | 188 | 0.9 | 1.7 | 0.00 | 0.00 | 0.00 | 51 | 1010.3 |
| 20260906074546 | 79 | 188 | 0.9 | 2.6 | 0.00 | 0.00 | 0.00 | 51 | 1010.4 |
| 20260906073546 | 79 | 188 | 1.7 | 3.5 | 0.00 | 0.00 | 0.00 | 51 | 1010.5 |
| 20260906073046 | 79 | 188 | 0.9 | 3.5 | 0.00 | 0.00 | 0.00 | 50 | 1010.5 |
| 20260906072547 | 80 | 188 | 0.9 | 2.6 | 0.00 | 0.00 | 0.00 | 50 | 1010.6 |
| 20260906072042 | 80 | 188 | 0.9 | 2.6 | 0.00 | 0.00 | 0.00 | 50 | 1010.7 |
| 20260906071542 | 80 | 188 | 0.9 | 2.6 | 0.00 | 0.00 | 0.00 | 50 | 1010.7 |
| 20260906071042 | 80 | 188 | 0.9 | 2.6 | 0.00 | 0.00 | 0.00 | 50 | 1010.9 |
| 20260906070541 | 80 | 188 | 0.9 | 3.5 | 0.00 | 0.00 | 0.00 | 49 | 1010.9 |
| 20260906070040 | 80 | 188 | 1.7 | 3.5 | 0.00 | 0.00 | 0.00 | 49 | 1010.9 |
| 20260906065543 | 80 | 189 | 1.7 | 3.5 | 0.00 | 0.00 | 0.00 | 49 | 1010.9 |
| 20260906065040 | 80 | 189 | 1.7 | 3.5 | 0.00 | 0.00 | 0.00 | 49 | 1011.0 |
| 20260906064540 | 80 | 190 | 0.9 | 3.5 | 0.00 | 0.00 | 0.00 | 49 | 1011.0 |
| 20260906063542 | 81 | 190 | 0.9 | 3.5 | 0.00 | 0.00 | 0.00 | 49 | 1011.1 |
| 20260906063037 | 81 | 190 | 1.7 | 4.3 | 0.00 | 0.00 | 0.00 | 49 | 1011.1 |
| 20260906062536 | 81 | 190 | 1.7 | 3.5 | 0.00 | 0.00 | 0.00 | 48 | 1011.2 |
| 20260906062136 | 81 | 190 | 1.7 | 3.5 | 0.00 | 0.00 | 0.00 | 48 | 1011.1 |
| 20260906061536 | 81 | 190 | 0.9 | 3.5 | 0.00 | 0.00 | 0.00 | 48 | 1011.3 |
| 20260906061036 | 81 | 190 | 1.7 | 3.5 | 0.00 | 0.00 | 0.00 | 48 | 1011.3 |
| 20260906060535 | 81 | 190 | 1.7 | 2.6 | 0.00 | 0.00 | 0.00 | 49 | 1011.3 |
| 20260906060044 | 81 | 190 | 1.7 | 3.5 | 0.00 | 0.00 | 0.00 | 48 | 1011.2 |
| 20260906055533 | 81 | 190 | 1.7 | 3.5 | 0.00 | 0.00 | 0.00 | 48 | 1011.4 |
| 20260906055033 | 81 | 190 | 1.7 | 3.5 | 0.00 | 0.00 | 0.00 | 48 | 1011.4 |
| 20260906054533 | 82 | 190 | 1.7 | 3.5 | 0.00 | 0.00 | 0.00 | 47 | 1011.4 |
| 20260906053535 | 82 | 191 | 3.5 | 5.2 | 0.00 | 0.00 | 0.00 | 47 | 1011.3 |
| 20260906053035 | 82 | 172 | 2.6 | 5.2 | 0.00 | 0.00 | 0.00 | 47 | 1011.3 |
| 20260906052536 | 82 | 171 | 2.6 | 5.2 | 0.00 | 0.00 | 0.00 | 47 | 1011.4 |
| 20260906052029 | 82 | 175 | 2.6 | 4.3 | 0.00 | 0.00 | 0.00 | 47 | 1011.4 |
| 20260906051529 | 82 | 187 | 1.7 | 4.3 | 0.00 | 0.00 | 0.00 | 46 | 1011.3 |
| 20260906051028 | 83 | 187 | 1.7 | 4.3 | 0.00 | 0.00 | 0.00 | 46 | 1011.5 |
| 20260906050527 | 83 | 187 | 1.7 | 4.3 | 0.00 | 0.00 | 0.00 | 46 | 1011.5 |
| 20260906050026 | 83 | 185 | 2.6 | 5.2 | 0.00 | 0.00 | 0.00 | 46 | 1011.5 |
| 20260906045528 | 83 | 175 | 2.6 | 5.2 | 0.00 | 0.00 | 0.00 | 46 | 1011.5 |
| 20260906045026 | 83 | 155 | 2.6 | 5.2 | 0.00 | 0.00 | 0.00 | 46 | 1011.4 |
| 20260906044527 | 83 | 177 | 2.6 | 5.2 | 0.00 | 0.00 | 0.00 | 46 | 1011.4 |
| 20260906043525 | 83 | 170 | 1.7 | 4.3 | 0.00 | 0.00 | 0.00 | 45 | 1011.4 |
| 20260906043027 | 83 | 171 | 2.6 | 4.3 | 0.00 | 0.00 | 0.00 | 45 | 1011.3 |
| 20260906042626 | 83 | 171 | 1.7 | 4.3 | 0.00 | 0.00 | 0.00 | 45 | 1011.3 |
| 20260906042025 | 84 | 171 | 1.7 | 4.3 | 0.00 | 0.00 | 0.00 | 45 | 1011.2 |
| 20260906041530 | 84 | 177 | 1.7 | 4.3 | 0.00 | 0.00 | 0.00 | 45 | 1011.1 |
| 20260906041025 | 84 | 179 | 2.6 | 4.3 | 0.00 | 0.00 | 0.00 | 45 | 1011.2 |
| 20260906040524 | 84 | 179 | 2.6 | 7.8 | 0.00 | 0.00 | 0.00 | 45 | 1011.1 |
| 20260906040034 | 84 | 156 | 2.6 | 7.8 | 0.00 | 0.00 | 0.00 | 44 | 1011.1 |
| 20260906035533 | 84 | 207 | 3.5 | 6.1 | 0.00 | 0.00 | 0.00 | 44 | 1011.2 |
| 20260906035024 | 84 | 173 | 2.6 | 7.0 | 0.00 | 0.00 | 0.00 | 44 | 1011.2 |
| 20260906034529 | 85 | 189 | 3.5 | 7.8 | 0.00 | 0.00 | 0.00 | 44 | 1011.1 |
| 20260906034123 | 85 | 191 | 3.5 | 7.8 | 0.00 | 0.00 | 0.00 | 44 | 1011.1 |
| 20260906033523 | 85 | 191 | 4.3 | 7.8 | 0.00 | 0.00 | 0.00 | 43 | 1011.0 |
| 20260906033024 | 85 | 191 | 3.5 | 8.7 | 0.00 | 0.00 | 0.00 | 43 | 1010.9 |
| 20260906032523 | 85 | 196 | 3.5 | 8.7 | 0.00 | 0.00 | 0.00 | 43 | 1010.9 |
| 20260906032026 | 85 | 186 | 4.3 | 10.4 | 0.00 | 0.00 | 0.00 | 43 | 1010.9 |
| 20260906031537 | 85 | 189 | 6.1 | 10.4 | 0.00 | 0.00 | 0.00 | 43 | 1010.8 |
| 20260906031023 | 85 | 193 | 3.5 | 8.7 | 0.00 | 0.00 | 0.00 | 42 | 1010.8 |
| 20260906030522 | 86 | 193 | 5.2 | 8.7 | 0.00 | 0.00 | 0.00 | 42 | 1010.5 |
| 20260906030022 | 86 | 192 | 4.3 | 7.8 | 0.00 | 0.00 | 0.00 | 42 | 1010.6 |
| 20260906025528 | 86 | 187 | 3.5 | 8.7 | 0.00 | 0.00 | 0.00 | 42 | 1010.5 |
| 20260906025024 | 86 | 198 | 4.3 | 8.7 | 0.00 | 0.00 | 0.00 | 41 | 1010.4 |
| 20260906024527 | 86 | 174 | 2.6 | 7.8 | 0.00 | 0.00 | 0.00 | 41 | 1010.3 |
| 20260906023524 | 86 | 198 | 5.2 | 9.6 | 0.00 | 0.00 | 0.00 | 41 | 1009.9 |
| 20260906023023 | 87 | 185 | 6.1 | 9.6 | 0.00 | 0.00 | 0.00 | 41 | 1009.8 |
| 20260906022524 | 87 | 193 | 5.2 | 10.4 | 0.00 | 0.00 | 0.00 | 40 | 1009.7 |
| 20260906022023 | 87 | 190 | 4.3 | 11.3 | 0.00 | 0.00 | 0.00 | 40 | 1009.5 |
| 20260906021523 | 87 | 194 | 7.0 | 13.0 | 0.00 | 0.00 | 0.00 | 40 | 1009.3 |
| 20260906021024 | 87 | 204 | 7.8 | 13.0 | 0.00 | 0.00 | 0.00 | 40 | 1009.1 |
| 20260906020522 | 87 | 197 | 5.2 | 13.0 | 0.00 | 0.00 | 0.00 | 39 | 1009.1 |
| 20260906020022 | 88 | 197 | 7.8 | 12.2 | 0.00 | 0.00 | 0.00 | 39 | 1008.9 |
| 20260906015522 | 88 | 202 | 6.1 | 12.2 | 0.00 | 0.00 | 0.00 | 38 | 1008.9 |
| 20260906015022 | 88 | 198 | 5.2 | 11.3 | 0.00 | 0.00 | 0.00 | 38 | 1008.9 |
| 20260906014525 | 89 | 202 | 6.1 | 11.3 | 0.00 | 0.00 | 0.00 | 38 | 1008.8 |
| 20260906013523 | 89 | 198 | 7.8 | 16.5 | 0.00 | 0.00 | 0.00 | 37 | 1008.6 |
| 20260906013021 | 89 | 165 | 9.6 | 16.5 | 0.00 | 0.00 | 0.00 | 37 | 1008.6 |
| 20260906012520 | 90 | 188 | 10.4 | 16.5 | 0.00 | 0.00 | 0.00 | 36 | 1008.4 |
| 20260906012024 | 91 | 191 | 7.8 | 16.5 | 0.00 | 0.00 | 0.00 | 35 | 1008.3 |
| 20260906011523 | 92 | 183 | 9.6 | 15.6 | 0.00 | 0.00 | 0.00 | 33 | 1008.3 |
| 20260906011020 | 93 | 150 | 8.7 | 20.0 | 0.00 | 0.00 | 0.00 | 32 | 1008.2 |
| 20260906010519 | 95 | 166 | 6.1 | 17.4 | 0.00 | 0.00 | 0.00 | 27 | 1008.0 |
| 20260906010020 | 95 | 174 | 4.3 | 9.6 | 0.00 | 0.00 | 0.00 | 27 | 1007.7 |
| 20260906005518 | 95 | 196 | 3.5 | 10.4 | 0.00 | 0.00 | 0.00 | 26 | 1007.8 |
| 20260906005019 | 95 | 173 | 4.3 | 11.3 | 0.00 | 0.00 | 0.00 | 26 | 1007.8 |
| 20260906004519 | 95 | 162 | 6.1 | 11.3 | 0.00 | 0.00 | 0.00 | 25 | 1007.7 |
| 20260906003519 | 96 | 147 | 3.5 | 7.0 | 0.00 | 0.00 | 0.00 | 25 | 1007.8 |
| 20260906003023 | 96 | 156 | 3.5 | 5.2 | 0.00 | 0.00 | 0.00 | 24 | 1007.8 |
| 20260906002518 | 96 | 169 | 1.7 | 7.8 | 0.00 | 0.00 | 0.00 | 25 | 1007.8 |
| 20260906002018 | 96 | 158 | 3.5 | 8.7 | 0.00 | 0.00 | 0.00 | 25 | 1007.7 |
| 20260906001518 | 96 | 192 | 5.2 | 10.4 | 0.00 | 0.00 | 0.00 | 25 | 1007.7 |
| 20260906001023 | 96 | 160 | 6.1 | 10.4 | 0.00 | 0.00 | 0.00 | 25 | 1007.6 |
| 20260906000518 | 97 | 233 | 6.1 | 8.7 | 0.00 | 0.00 | 0.00 | 25 | 1007.6 |
| 20260906000018 | 97 | 216 | 4.3 | 7.8 | 0.00 | 0.00 | 0.00 | 25 | 1007.7 |
| 20260905235518 | 97 | 208 | 4.3 | 8.7 | 0.00 | 0.00 | 0.00 | 25 | 1007.7 |
| 20260905235024 | 97 | 191 | 4.3 | 8.7 | 0.00 | 0.00 | 0.00 | 25 | 1007.6 |
| 20260905234517 | 96 | 204 | 6.1 | 9.6 | 0.00 | 0.00 | 0.00 | 25 | 1007.7 |
| 20260905233518 | 96 | 209 | 6.1 | 10.4 | 0.00 | 0.00 | 0.00 | 25 | 1007.7 |
| 20260905233018 | 97 | 191 | 6.1 | 10.4 | 0.00 | 0.00 | 0.00 | 25 | 1007.6 |
| 20260905232517 | 96 | 195 | 5.2 | 9.6 | 0.00 | 0.00 | 0.00 | 25 | 1007.6 |
| 20260905232017 | 96 | 197 | 3.5 | 9.6 | 0.00 | 0.00 | 0.00 | 26 | 1007.5 |
| 20260905231522 | 97 | 216 | 6.1 | 9.6 | 0.00 | 0.00 | 0.00 | 25 | 1007.5 |
| 20260905231021 | 96 | 220 | 5.2 | 11.3 | 0.00 | 0.00 | 0.00 | 26 | 1007.3 |
| 20260905230516 | 96 | 203 | 6.1 | 11.3 | 0.00 | 0.00 | 0.00 | 26 | 1007.5 |
| 20260905230016 | 96 | 197 | 7.0 | 12.2 | 0.00 | 0.00 | 0.00 | 26 | 1007.5 |
| 20260905225515 | 96 | 209 | 7.0 | 9.6 | 0.00 | 0.00 | 0.00 | 26 | 1007.6 |
| 20260905225017 | 96 | 204 | 5.2 | 9.6 | 0.00 | 0.00 | 0.00 | 26 | 1007.7 |
| 20260905224519 | 96 | 191 | 6.1 | 10.4 | 0.00 | 0.00 | 0.00 | 26 | 1007.7 |
| 20260905224114 | 96 | 205 | 7.0 | 11.3 | 0.00 | 0.00 | 0.00 | 27 | 1007.6 |
| 20260905223514 | 96 | 215 | 7.0 | 11.3 | 0.00 | 0.00 | 0.00 | 27 | 1007.7 |
| 20260905223015 | 96 | 205 | 6.1 | 11.3 | 0.00 | 0.00 | 0.00 | 27 | 1007.7 |
| 20260905222515 | 96 | 225 | 7.8 | 11.3 | 0.00 | 0.00 | 0.00 | 27 | 1007.6 |
| 20260905222014 | 96 | 214 | 8.7 | 12.2 | 0.00 | 0.00 | 0.00 | 27 | 1007.7 |
| 20260905221514 | 96 | 209 | 7.8 | 12.2 | 0.00 | 0.00 | 0.00 | 27 | 1007.6 |
| 20260905221014 | 96 | 203 | 7.0 | 12.2 | 0.00 | 0.00 | 0.00 | 27 | 1007.7 |
| 20260905220516 | 96 | 224 | 7.0 | 11.3 | 0.00 | 0.00 | 0.00 | 27 | 1007.6 |
| 20260905220014 | 96 | 214 | 7.0 | 13.0 | 0.00 | 0.00 | 0.00 | 28 | 1007.7 |
| 20260905215514 | 96 | 213 | 8.7 | 13.0 | 0.00 | 0.00 | 0.00 | 27 | 1007.6 |
| 20260905215012 | 96 | 205 | 7.0 | 11.3 | 0.00 | 0.00 | 0.00 | 28 | 1007.7 |
| 20260905214512 | 96 | 218 | 7.0 | 12.2 | 0.00 | 0.00 | 0.00 | 27 | 1007.7 |
| 20260905213513 | 97 | 204 | 9.6 | 13.9 | 0.00 | 0.00 | 0.00 | 27 | 1007.8 |
| 20260905213013 | 97 | 211 | 9.6 | 13.9 | 0.00 | 0.00 | 0.00 | 26 | 1007.8 |
| 20260905212512 | 98 | 211 | 5.2 | 11.3 | 0.00 | 0.00 | 0.00 | 26 | 1007.9 |
| 20260905212012 | 98 | 152 | 4.3 | 9.6 | 0.00 | 0.00 | 0.00 | 24 | 1008.0 |
| 20260905211509 | 97 | 72 | 0.9 | 9.6 | 0.00 | 0.00 | 0.00 | 25 | 1008.1 |
| 20260905211010 | 97 | 122 | 3.5 | 9.6 | 0.00 | 0.00 | 0.00 | 26 | 1008.3 |
| 20260905210508 | 97 | 137 | 3.5 | 11.3 | 0.00 | 0.00 | 0.00 | 25 | 1008.3 |
| 20260905210008 | 97 | 78 | 5.2 | 11.3 | 0.00 | 0.00 | 0.00 | 25 | 1008.3 |
| 20260905205509 | 97 | 203 | 2.6 | 7.8 | 0.00 | 0.00 | 0.00 | 27 | 1008.3 |
| 20260905205007 | 96 | 175 | 3.5 | 7.8 | 0.00 | 0.00 | 0.00 | 27 | 1008.4 |
| 20260905204507 | 97 | 198 | 4.3 | 7.0 | 0.00 | 0.00 | 0.00 | 27 | 1008.3 |
| 20260905203504 | 96 | 162 | 1.7 | 10.4 | 0.00 | 0.00 | 0.00 | 28 | 1008.6 |
| 20260905203003 | 96 | 156 | 4.3 | 10.4 | 0.00 | 0.00 | 0.00 | 29 | 1008.8 |
| 20260905202505 | 97 | 162 | 6.1 | 10.4 | 0.00 | 0.00 | 0.00 | 28 | 1008.9 |
| 20260905202003 | 98 | 163 | 4.3 | 8.7 | 0.00 | 0.00 | 0.00 | 27 | 1008.8 |
| 20260905201501 | 98 | 182 | 2.6 | 7.0 | 0.00 | 0.00 | 0.00 | 27 | 1009.0 |
| 20260905201104 | 97 | 21 | 2.6 | 5.2 | 0.00 | 0.00 | 0.00 | 28 | 1009.0 |
| 20260905200601 | 96 | 183 | 2.6 | 8.7 | 0.00 | 0.00 | 0.00 | 28 | 1009.2 |
| 20260905200127 | 96 | 212 | 5.2 | 8.7 | 0.00 | 0.00 | 0.00 | 27 | 1009.2 |
| 20260905195655 | 95 | 187 | 3.5 | 8.7 | 0.00 | 0.00 | 0.00 | 29 | 1009.3 |
| 20260905195053 | 95 | 99 | 5.2 | 8.7 | 0.00 | 0.00 | 0.00 | 28 | 1009.5 |
| 20260905194553 | 95 | 87 | 3.5 | 12.2 | 0.00 | 0.00 | 0.00 | 30 | 1009.7 |
| 20260905194152 | 95 | 168 | 7.0 | 12.2 | 0.00 | 0.00 | 0.00 | 33 | 1009.8 |
| 20260905193552 | 94 | 208 | 4.3 | 10.4 | 0.00 | 0.00 | 0.00 | 34 | 1009.8 |
| 20260905193051 | 94 | 200 | 5.2 | 10.4 | 0.00 | 0.00 | 0.00 | 34 | 1010.0 |
| 20260905192549 | 94 | 186 | 5.2 | 9.6 | 0.00 | 0.00 | 0.00 | 34 | 1010.1 |
| 20260905192048 | 94 | 241 | 1.7 | 10.4 | 0.00 | 0.00 | 0.00 | 34 | 1010.2 |